| Date | Time | Temp. (oF) | Dew Point (oF) | Rel. Hum. (%) | Press. (in.) | Wind Dir. | Wind Speed (mph) | Hourly Rainfall (in.) |
|
|---|---|---|---|---|---|---|---|---|---|
| 1 | 02/06 | 00:00 | 20 | 11 | 69 | 30.33 | WNW | 1 | 0.00 |
| 2 | 02/05 | 23:00 | 20 | 10 | 66 | 30.33 | W | 1 | 0.00 |
| 3 | 02/05 | 22:00 | 22 | 11 | 63 | 30.31 | W | 1 | 0.00 |
| 4 | 02/05 | 21:00 | 23 | 12 | 63 | 30.30 | NW | 2 | 0.00 |
| 5 | 02/05 | 20:00 | 24 | 11 | 59 | 30.28 | NW | 2 | 0.00 |
| 6 | 02/05 | 19:00 | 26 | 12 | 55 | 30.25 | NW | 4 | 0.00 |
| 7 | 02/05 | 18:00 | 27 | 11 | 52 | 30.21 | WNW | 6 | 0.00 |
| 8 | 02/05 | 17:00 | 29 | 12 | 49 | 30.17 | S | 9 | 0.00 |
| 9 | 02/05 | 16:00 | 30 | 11 | 46 | 30.14 | SSW | 12 | 0.00 |
| 10 | 02/05 | 15:00 | 30 | 11 | 46 | 30.13 | W | 10 | 0.00 |
| 11 | 02/05 | 14:00 | 29 | 11 | 48 | 30.12 | SSW | 4 | 0.00 |
| 12 | 02/05 | 13:00 | 29 | 12 | 50 | 30.12 | W | 5 | 0.00 |
| 13 | 02/05 | 12:00 | 27 | 11 | 51 | 30.13 | WNW | 11 | 0.00 |
| 14 | 02/05 | 11:00 | 28 | 13 | 53 | 30.13 | WNW | 11 | 0.00 |
| 15 | 02/05 | 10:00 | 27 | 13 | 56 | 30.11 | NW | 11 | 0.00 |
| 16 | 02/05 | 09:00 | 26 | 13 | 59 | 30.07 | NW | 11 | 0.00 |
| 17 | 02/05 | 08:00 | 26 | 12 | 56 | 30.03 | WNW | 9 | 0.00 |
| 18 | 02/05 | 07:00 | 25 | 11 | 55 | 29.99 | W | 5 | 0.00 |
| 19 | 02/05 | 06:00 | 26 | 12 | 57 | 29.96 | W | 11 | 0.00 |
| 20 | 02/05 | 05:00 | 27 | 18 | 70 | 29.94 | NW | 12 | 0.00 |
| 21 | 02/05 | 04:00 | 29 | 17 | 63 | 29.90 | NW | 11 | 0.00 |
| 22 | 02/05 | 03:00 | 30 | 16 | 57 | 29.88 | WNW | 4 | 0.00 |
| 23 | 02/05 | 02:00 | 31 | 17 | 56 | 29.85 | WSW | 8 | 0.00 |
| 24 | 02/05 | 01:00 | 32 | 17 | 55 | 29.83 | WSW | 9 | 0.00 |